{"data":{"norad_id":37218,"intl_designator":"2010-061A","name":"SKYTERRA 1","alt_names":[],"object_type":"PAYLOAD","status":"ACTIVE","operator":null,"country":"US","launch_date":"2010-11-14","launch_site_code":"TYMSC","launch_vehicle":null,"mission":null,"orbit_class":"UNKNOWN","rcs_meters":0.003,"size_class":null,"mass_kg":null,"dimensions":null,"purposes":["comms"],"wikipedia_slug":null,"has_3d_model":false,"image_url":null,"decayed_at":null,"tle_current":{"epoch":"2026-09-19T14:57:35.991936Z","epoch_age_seconds":94061,"freshness":"FRESH","line1":"1 37218U 10061A   26262.62333324 -.00000121  00000+0  00000+0 0  9996","line2":"2 37218   5.3233  50.6279 0000919 149.8822 281.1468  1.00272248 58145","mean_motion":1.00272248,"eccentricity":9.19e-5,"inclination_deg":5.3233,"raan_deg":50.6279,"arg_perigee_deg":149.8822,"mean_anomaly_deg":281.1468,"bstar":0,"rev_number":5814,"period_min":1436.0902729537,"perigee_km":35782.590239044,"apogee_km":35790.340092922,"semimajor_km":42164.602165983,"source":"CELESTRAK","updated_at":"2026-09-20T09:00:35.165995Z"}}}